Regional Weather Roundup
Issued by NWS

Home | Current Version | Previous Version | Graphics & Text | Print | Product List | Glossary On
Versions: 1 2 3 4 5 6 7 8 9 10 11 12 13 14 15 16 17 18 19 20 21 22 23 24 25 26 27 28 29 30 31 32 33 34 35 36 37 38 39 40 41 42 43 44 45 46 47 48 49 50
000
ASUS43 KDMX 301707
RWRIA

WEATHER ROUNDUP FOR IOWA
NATIONAL WEATHER SERVICE DES MOINES IA
1200 PM CDT SAT AUG 30 2014

NOTE: "FAIR" INDICATES FEW OR NO CLOUDS BELOW 12,000 FEET WITH NO
SIGNIFICANT WEATHER AND/OR OBSTRUCTIONS TO VISIBILITY.

* - THESE STATIONS ARE NOT NWS STATIONS...THUS NOT UNDER NWS
QUALITY CONTROL.  THEY ALSO DO NOT REPORT WEATHER SUCH
AS PRECIPITATION OR FOG.

IAZ001>003-012>014-020>022-031>034-043>046-301800-
   NORTHWEST IOWA

CITY           SKY/WX    TMP DP  RH WIND       PRES   REMARKS
CARROLL *      CLOUDY    70  66  88 W6        29.93S
CHEROKEE *     CLOUDY    68  66  94 W9        29.94R
DENISON *      CLOUDY    70  68  94 W7        29.92F
LE MARS *      CLOUDY    68  63  83 W8        29.95S
ORANGE CITY *  PTSUNNY   72  63  73 W8        29.94S
SHELDON *      MOSUNNY   72  63  73 W5        29.91F
SPENCER        PTSUNNY   71  63  75 CALM      29.92S
STORM LAKE *   PTSUNNY   72  72 100 NW10      29.93S
$$

IAZ055>058-069>071-079>083-090>094-301800-
   SOUTHWEST IOWA

CITY           SKY/WX    TMP DP  RH WIND       PRES   REMARKS
ATLANTIC *     CLOUDY    70  66  88 W8        29.94S
AUDUBON *      CLOUDY    70  66  88 W5        29.95S
CLARINDA *     PTSUNNY   77  70  78 VRB6      29.95S
COUNCIL BLFS * CLOUDY    68  68 100 NW6       29.95S
CRESTON *      CLOUDY    75  70  83 VRB6      29.94S
HARLAN  *      CLOUDY    70  66  88 NW8       29.98S
LAMONI         MOSUNNY   77  69  76 W7        29.93S
RED OAK *      CLOUDY    72  68  88 NW8       29.95S
SHENANDOAH *   MOSUNNY   77  70  78 VRB6      29.94F
$$

IAZ047>049-059>061-072>074-084-301800-
   CENTRAL IOWA

CITY           SKY/WX    TMP DP  RH WIND       PRES   REMARKS
AMES           PTSUNNY   76  67  73 NW10      29.90R
ANKENY *       PTSUNNY   75  68  78 W10       29.90S
CHARITON *     MOSUNNY   75  68  78 NW8       29.92S
DES MOINES     PTSUNNY   78  68  71 W9        29.90S HX  80
GRINNELL*      CLOUDY    72  66  83 W7        29.91S
KNOXVILLE *    CLOUDY    72  66  83 NW9       29.90S
MARSHALLTOWN   PTSUNNY   75  67  76 NW9       29.89R
PELLA *        CLOUDY    73  66  78 W9        29.92R
PERRY *        CLOUDY    72  68  88 W9        29.92S
$$

IAZ004>006-015-016-023>025-035-036-301800-
   NORTH CENTRAL IOWA

CITY           SKY/WX    TMP DP  RH WIND       PRES   REMARKS
ALGONA *       CLOUDY    70  64  83 NW9       29.91S
CLARION *      CLOUDY    70  66  88 W8        29.91R
ESTHERVILLE    CLOUDY    68  64  87 N6        29.91F
FORT DODGE *   CLOUDY    70  64  83 NW6       29.92S
MASON CITY     MOSUNNY   75  66  73 NW10      29.89S
FOREST CITY *  CLOUDY    72  68  88 NW9       29.89S
IOWA FALLS *   CLOUDY    72  64  78 W8        29.91S
$$

IAZ007>011-017>019-026>030-037>042-050>054-066-301800-
   NORTHEAST IOWA

CITY           SKY/WX    TMP DP  RH WIND       PRES   REMARKS
CEDAR RAPIDS   CLOUDY    74  68  81 W13       29.88R
CHARLES CITY * CLOUDY    73  66  78 W13       29.88S
CLINTON *      PTSUNNY   75  66  73 W14G20    29.89R
DECORAH *      CLOUDY    73  66  78 NW6       29.84R
DUBUQUE        CLOUDY    74  67  78 W14       29.86R
MONTICELLO *   CLOUDY    73  68  83 W12       29.86S
OELWEIN *      PTSUNNY   73  68  83 W10       29.87S
WATERLOO       CLOUDY    74  67  78 W10       29.86S
$$

IAZ064-065-067-068-078-301800-
   EAST CENTRAL IOWA

CITY           SKY/WX    TMP DP  RH WIND       PRES   REMARKS
DAVENPORT      PTSUNNY   75  67  76 W12       29.89R
IOWA CITY      CLOUDY    75  68  78 W12       29.89S
MT. PLEASANT * MOSUNNY   81  64  57 W8        29.90S HX  82
MUSCATINE *    PTSUNNY   79  68  69 W12       29.89R HX  81
QUAD CITIES    CLOUDY    79  68  69 W8        29.87S HX  81
$$

IAZ062-063-075>077-085>089-095>099-301800-
   SOUTHEAST IOWA

CITY           SKY/WX    TMP DP  RH WIND       PRES   REMARKS
BURLINGTON     MOSUNNY   78  68  71 SW6       29.90R HX  80
FAIRFIELD *    PTSUNNY   77  68  73 W9        29.91R
FORT MADISON * MOSUNNY   81  70  69 W6        29.91S HX  84
KEOKUK *       PTSUNNY   79  70  73 VRB6G13   29.90S HX  81
OSKALOOSA *    CLOUDY    72  68  88 W8        29.92R
CENTERVILLE *  PTSUNNY   73  68  83 W5        29.95R
OTTUMWA        CLOUDY    72  66  81 W8        29.91R
WASHINGTON *   PTSUNNY   77  70  78 NW7       29.90R
$$

ABBREVIATIONS USED IN REMARKS
   TC - TEMPERATURES IN CELSIUS
  WCI - WIND CHILL INDEX
   HX - HEAT INDEX
  VSB - VISIBILITY
$$




USA.gov is the U.S. government's official web portal to all federal, state and local government web resources and services.